Flag for United Kingdom Weather past 2 weeks in Oxford, England, United Kingdom

Now
73 °F

Partly sunny.


Feels Like: 77 °F
Forecast: 58 / 79 °F
Wind: 8 mph from Northeast

Location: Benson

Current Time: Jul 24, 2014 at 9:51:38 PM

Latest Report: Jul 24, 2014 at 8:50 PM


Visibility: N/A

Pressure: 30.04 "Hg

Humidity: 53%

Dew point: 55 °F

Location of OxfordLocation

Historic Weather in Oxford — Graph

°F

Oxford temperature yesterday

Maximum temperature yesterday: 81 °F (at 2:50 PM)
Minimum temperature yesterday: 59 °F (at 1:50 AM)
Average temperature yesterday: 70 °F

Past Weeks' High & Low Weather Summary

 TemperatureHumidityPressure
High82 °F (Jul 24, 3:50 PM)100% (Jul 11, 2:50 AM)30.24 "Hg (Jul 11, 2:50 AM)
Low45 °F (Jul 14, 2:50 AM)39% (Jul 10, 2:50 PM)29.68 "Hg (Jul 19, 5:50 PM)
Average67 °F73%30.00 "Hg
* Reported Jul 9 7:50 PM — Jul 24 7:50 PM, Oxford, Weather by CustomWeather, © 2014

Note: Actual official high and low records may vary slightly from our data, if they occured in-between our weather recording intervals... More about our weather records

Advertising

Oxford weather history for previous 24 hours

 ConditionsComfort  
Time TempWeatherWind HumidityBarometerVisibility
7:50 PM
Jul 24
77 °FPassing clouds.8 mph51%30.01 "HgN/A
6:50 PM81 °FPassing clouds.10 mph48%29.98 "HgN/A
5:50 PM79 °FSunny.10 mph51%30.01 "Hg10 mi
4:50 PM82 °FSunny.8 mph45%30.01 "Hg10 mi
3:50 PM82 °FSunny.8 mph45%30.01 "Hg10 mi
2:50 PM79 °FSunny.9 mph54%30.01 "Hg10 mi
1:50 PM79 °FPassing clouds.13 mph54%30.04 "HgN/A
12:50 PM79 °FPassing clouds.13 mph58%30.04 "HgN/A
11:50 AM75 °FSunny.13 mph61%30.07 "Hg10 mi
10:50 AM70 °FPassing clouds.9 mph73%30.07 "HgN/A
9:50 AM70 °FScattered clouds.13 mph73%30.07 "Hg5 mi
8:50 AM64 °FPartly sunny.14 mph83%30.07 "Hg4 mi
7:50 AM63 °FLow clouds.13 mph88%30.07 "Hg4 mi
6:50 AM63 °FLow clouds.12 mph88%30.07 "Hg4 mi
5:50 AM61 °FFog.9 mph94%30.07 "Hg4 mi
4:50 AM57 °FFog.3 mph94%30.07 "Hg5 mi
3:50 AM59 °FClear.8 mph94%30.07 "HgN/A
2:50 AM61 °FClear.3 mph83%30.07 "HgN/A
1:50 AM61 °FClear.5 mph83%30.07 "Hg10 mi
12:50 AM64 °FClear.9 mph78%30.07 "Hg10 mi
11:50 PM
Jul 23
66 °FClear.10 mph78%30.07 "Hg10 mi
10:50 PM68 °FClear.10 mph73%30.07 "Hg10 mi
9:50 PM70 °FSunny.7 mph69%30.07 "Hg10 mi
Weather by CustomWeather, © 2014

See weather overviewHow to use our weather pages